TimeCST,TemperatureF,Dew PointF,Humidity,Sea Level PressureIn,VisibilityMPH,Wind Direction,Wind SpeedMPH,Gust SpeedMPH,PrecipitationIn,Events,Conditions,WindDirDegrees,DateUTC
12:55 AM,40.6,32.5,73,30.30,10.0,North,9.2,-,N/A,,Clear,360,2013-01-18 06:55:00
1:55 AM,39.6,32.4,75,30.33,10.0,North,10.4,-,N/A,,Clear,350,2013-01-18 07:55:00
2:55 AM,38.3,32.4,79,30.35,10.0,North,4.6,-,N/A,,Clear,350,2013-01-18 08:55:00
3:55 AM,36.0,31.8,85,30.37,10.0,NNW,5.8,-,N/A,,Clear,330,2013-01-18 09:55:00
4:55 AM,36.1,32.4,86,30.39,10.0,NW,8.1,-,N/A,,Clear,310,2013-01-18 10:55:00
5:55 AM,34.7,31.8,89,30.42,10.0,NW,6.9,-,N/A,,Clear,320,2013-01-18 11:55:00
6:55 AM,34.5,31.6,89,30.45,10.0,NW,8.1,-,N/A,,Clear,320,2013-01-18 12:55:00
7:55 AM,37.6,32.2,81,30.48,10.0,North,11.5,-,N/A,,Clear,350,2013-01-18 13:55:00
8:55 AM,41.2,31.8,69,30.50,10.0,North,9.2,-,N/A,,Scattered Clouds,350,2013-01-18 14:55:00
9:55 AM,46.8,32.9,59,30.50,10.0,NNE,10.4,-,N/A,,Scattered Clouds,20,2013-01-18 15:55:00
10:55 AM,51.1,33.8,52,30.49,10.0,NNE,8.1,-,N/A,,Scattered Clouds,20,2013-01-18 16:55:00
11:55 AM,54.3,33.6,46,30.45,10.0,NNE,10.4,-,N/A,,Scattered Clouds,20,2013-01-18 17:55:00
12:58 PM,57.0,32.5,40,30.42,10.0,NE,6.9,-,N/A,,Partly Cloudy,50,2013-01-18 18:58:00
1:55 PM,58.8,30.9,35,30.40,10.0,NNE,12.7,-,N/A,,Partly Cloudy,20,2013-01-18 19:55:00
2:55 PM,59.2,31.5,35,30.40,10.0,NE,9.2,-,N/A,,Partly Cloudy,50,2013-01-18 20:55:00
3:55 PM,58.5,33.3,39,30.40,10.0,NE,8.1,-,N/A,,Partly Cloudy,50,2013-01-18 21:55:00
4:55 PM,55.6,34.0,44,30.42,10.0,NNE,4.6,-,N/A,,Scattered Clouds,30,2013-01-18 22:55:00
5:55 PM,50.0,34.7,56,30.42,10.0,NE,3.5,-,N/A,,Partly Cloudy,40,2013-01-18 23:55:00
6:55 PM,41.9,35.6,78,30.43,7.0,ENE,2.3,-,N/A,,Partly Cloudy,60,2013-01-19 00:55:00
7:55 PM,39.4,33.4,79,30.44,10.0,ENE,1.2,-,N/A,,Partly Cloudy,70,2013-01-19 01:55:00
8:55 PM,36.0,32.9,89,30.44,6.0,NNW,1.2,-,N/A,,Clear,330,2013-01-19 02:55:00
9:55 PM,34.2,32.5,94,30.43,5.0,North,1.2,-,N/A,,Clear,350,2013-01-19 03:55:00
10:55 PM,32.9,30.9,92,30.41,6.0,NE,2.3,-,N/A,,Clear,40,2013-01-19 04:55:00
11:55 PM,33.6,30.7,89,30.40,4.0,NE,3.5,-,N/A,,Clear,40,2013-01-19 05:55:00
11:57 PM,33.6,30.7,89,30.40,10.0,NE,3.5,-,N/A,,Clear,40,2013-01-19 05:57:00